Arlington, WA
on Wednesday, February 6, 2013

Wednesday
Previous Day Next Day
Daily Summary
 ActualAverageRecord
Temperature
Mean Temperature °F / °C °F / °C  
Max Temperature 48°F / 9°C 57°F / 13°C 60°F / 15°C (1998)
Min Temperature 42°F / 6°C 29°F / -1°C 10°F / -12°C (2014)
Degree Days
Heating Degree Days 20    
Moisture
Dew Point 37°F / 3°C   
Average Humidity 74    
Maximum Humidity 87    
Minimum Humidity 62    
Precipitation
Precipitation 0.00 in / 0.00 cm in / cm in / cm ()
Wind
Wind Speed 13 mph / 21 km/h   
Max Wind Speed 18 mph / 29 km/h   
Max Gust Speed 25 mph / 40 km/h   
Visibility 10 miles / 16 kilometers   
Events     
Averages and records for this station are not official NWS values.
Key: T is trace of precipitation, MM is missing value
Source: NWS Daily Summary
Seasonal Weather Averages
Time(PST)TemperatureDew PointHumidity Pressure Visibility Wind DirectionWind SpeedGust SpeedPrecipitationEvents Conditions
12:15 AM 44.6°F / 7.0°C 37.4°F / 3.0°C 76% 29.94 in / 1013.8 hPa 10.0 miles / 16.1 kilometers South 12.7 mph / 20.4 km/h - N/A   Overcast
12:35 AM 44.6°F / 7.0°C 37.4°F / 3.0°C 76% 29.95 in / 1014.1 hPa 10.0 miles / 16.1 kilometers South 12.7 mph / 20.4 km/h - N/A   Overcast
12:55 AM 44.6°F / 7.0°C 37.4°F / 3.0°C 76% 29.95 in / 1014.1 hPa 10.0 miles / 16.1 kilometers South 17.3 mph / 27.8 km/h 21.9 mph / 35.2 km/h N/A   Overcast
1:15 AM 44.6°F / 7.0°C 37.4°F / 3.0°C 76% 29.95 in / 1014.1 hPa 10.0 miles / 16.1 kilometers South 11.5 mph / 18.5 km/h - N/A   Overcast
1:35 AM 44.6°F / 7.0°C 37.4°F / 3.0°C 76% 29.96 in / 1014.4 hPa 10.0 miles / 16.1 kilometers SSE 13.8 mph / 22.2 km/h 20.7 mph / 33.3 km/h N/A   Overcast
1:55 AM 44.6°F / 7.0°C 37.4°F / 3.0°C 76% 29.97 in / 1014.8 hPa 10.0 miles / 16.1 kilometers South 11.5 mph / 18.5 km/h - N/A   Overcast
2:15 AM 44.6°F / 7.0°C 37.4°F / 3.0°C 76% 29.97 in / 1014.8 hPa 10.0 miles / 16.1 kilometers SSE 16.1 mph / 25.9 km/h 19.6 mph / 31.5 km/h N/A   Overcast
2:35 AM 44.6°F / 7.0°C 37.4°F / 3.0°C 76% 29.97 in / 1014.8 hPa 10.0 miles / 16.1 kilometers SSE 15.0 mph / 24.1 km/h - N/A   Overcast
2:55 AM 44.6°F / 7.0°C 37.4°F / 3.0°C 76% 29.97 in / 1014.8 hPa 10.0 miles / 16.1 kilometers SSE 11.5 mph / 18.5 km/h - N/A   Overcast
3:15 AM 44.6°F / 7.0°C 37.4°F / 3.0°C 76% 29.98 in / 1015.1 hPa 10.0 miles / 16.1 kilometers SSE 12.7 mph / 20.4 km/h - N/A   Overcast
3:35 AM 44.6°F / 7.0°C 37.4°F / 3.0°C 76% 29.98 in / 1015.1 hPa 10.0 miles / 16.1 kilometers South 11.5 mph / 18.5 km/h - N/A   Overcast
3:55 AM 44.6°F / 7.0°C 37.4°F / 3.0°C 76% 29.98 in / 1015.1 hPa 10.0 miles / 16.1 kilometers South 15.0 mph / 24.1 km/h - N/A   Overcast
4:15 AM 44.6°F / 7.0°C 37.4°F / 3.0°C 76% 30.00 in / 1015.8 hPa 10.0 miles / 16.1 kilometers South 13.8 mph / 22.2 km/h - N/A   Overcast
4:35 AM 44.6°F / 7.0°C 37.4°F / 3.0°C 76% 30.00 in / 1015.8 hPa 10.0 miles / 16.1 kilometers South 15.0 mph / 24.1 km/h 18.4 mph / 29.6 km/h N/A   Overcast
4:55 AM 44.6°F / 7.0°C 37.4°F / 3.0°C 76% 30.00 in / 1015.8 hPa 10.0 miles / 16.1 kilometers SSE 13.8 mph / 22.2 km/h 19.6 mph / 31.5 km/h N/A   Overcast
5:15 AM 44.6°F / 7.0°C 37.4°F / 3.0°C 76% 30.01 in / 1016.1 hPa 10.0 miles / 16.1 kilometers SSE 16.1 mph / 25.9 km/h 19.6 mph / 31.5 km/h N/A   Overcast
5:35 AM 44.6°F / 7.0°C 37.4°F / 3.0°C 76% 30.01 in / 1016.1 hPa 10.0 miles / 16.1 kilometers SSE 13.8 mph / 22.2 km/h - N/A   Overcast
5:55 AM 44.6°F / 7.0°C 37.4°F / 3.0°C 76% 30.01 in / 1016.1 hPa 10.0 miles / 16.1 kilometers SSE 13.8 mph / 22.2 km/h 19.6 mph / 31.5 km/h N/A   Overcast
6:15 AM 44.6°F / 7.0°C 37.4°F / 3.0°C 76% 30.01 in / 1016.1 hPa 10.0 miles / 16.1 kilometers SSE 13.8 mph / 22.2 km/h 19.6 mph / 31.5 km/h N/A   Overcast
6:35 AM 44.6°F / 7.0°C 37.4°F / 3.0°C 76% 30.02 in / 1016.5 hPa 10.0 miles / 16.1 kilometers SSE 11.5 mph / 18.5 km/h 17.3 mph / 27.8 km/h N/A   Overcast
6:55 AM 44.6°F / 7.0°C 37.4°F / 3.0°C 76% 30.02 in / 1016.5 hPa 10.0 miles / 16.1 kilometers SSE 15.0 mph / 24.1 km/h - N/A   Overcast
7:15 AM 44.6°F / 7.0°C 37.4°F / 3.0°C 76% 30.03 in / 1016.8 hPa 10.0 miles / 16.1 kilometers SSE 15.0 mph / 24.1 km/h 20.7 mph / 33.3 km/h N/A   Overcast
7:35 AM 44.6°F / 7.0°C 37.4°F / 3.0°C 76% 30.03 in / 1016.8 hPa 10.0 miles / 16.1 kilometers SSE 12.7 mph / 20.4 km/h - N/A   Overcast
7:55 AM 44.6°F / 7.0°C 37.4°F / 3.0°C 76% 30.03 in / 1016.8 hPa 10.0 miles / 16.1 kilometers SSE 11.5 mph / 18.5 km/h - N/A   Overcast
8:35 AM 44.6°F / 7.0°C 37.4°F / 3.0°C 76% 30.05 in / 1017.5 hPa 10.0 miles / 16.1 kilometers SSE 16.1 mph / 25.9 km/h 24.2 mph / 38.9 km/h N/A   Overcast
8:55 AM 44.6°F / 7.0°C 37.4°F / 3.0°C 76% 30.05 in / 1017.5 hPa 10.0 miles / 16.1 kilometers SSE 17.3 mph / 27.8 km/h - N/A   Overcast
9:15 AM 44.6°F / 7.0°C 37.4°F / 3.0°C 76% 30.04 in / 1017.2 hPa 10.0 miles / 16.1 kilometers SSE 16.1 mph / 25.9 km/h 21.9 mph / 35.2 km/h N/A   Overcast
9:35 AM 44.6°F / 7.0°C 37.4°F / 3.0°C 76% 30.04 in / 1017.2 hPa 10.0 miles / 16.1 kilometers SSE 17.3 mph / 27.8 km/h 25.3 mph / 40.7 km/h N/A   Overcast
9:55 AM 46.4°F / 8.0°C 37.4°F / 3.0°C 71% 30.04 in / 1017.2 hPa 10.0 miles / 16.1 kilometers SSE 16.1 mph / 25.9 km/h 21.9 mph / 35.2 km/h N/A   Mostly Cloudy
10:15 AM 46.4°F / 8.0°C 37.4°F / 3.0°C 71% 30.04 in / 1017.2 hPa 10.0 miles / 16.1 kilometers SSE 13.8 mph / 22.2 km/h 18.4 mph / 29.6 km/h N/A   Mostly Cloudy
10:35 AM 46.4°F / 8.0°C 37.4°F / 3.0°C 71% 30.04 in / 1017.2 hPa 10.0 miles / 16.1 kilometers SSE 17.3 mph / 27.8 km/h 24.2 mph / 38.9 km/h N/A   Overcast
10:55 AM 46.4°F / 8.0°C 37.4°F / 3.0°C 71% 30.04 in / 1017.2 hPa 10.0 miles / 16.1 kilometers SSE 18.4 mph / 29.6 km/h 24.2 mph / 38.9 km/h N/A   Scattered Clouds
11:15 AM 48.2°F / 9.0°C 37.4°F / 3.0°C 66% 30.04 in / 1017.2 hPa 10.0 miles / 16.1 kilometers SSE 18.4 mph / 29.6 km/h - N/A   Clear
11:35 AM 48.2°F / 9.0°C 37.4°F / 3.0°C 66% 30.04 in / 1017.2 hPa 10.0 miles / 16.1 kilometers SSE 17.3 mph / 27.8 km/h - N/A   Mostly Cloudy
11:55 AM 48.2°F / 9.0°C 37.4°F / 3.0°C 66% 30.03 in / 1016.8 hPa 10.0 miles / 16.1 kilometers SSE 13.8 mph / 22.2 km/h 21.9 mph / 35.2 km/h N/A   Mostly Cloudy
12:15 PM 48.2°F / 9.0°C 35.6°F / 2.0°C 62% 30.02 in / 1016.5 hPa 10.0 miles / 16.1 kilometers SSE 16.1 mph / 25.9 km/h 21.9 mph / 35.2 km/h N/A   Scattered Clouds
12:35 PM 48.2°F / 9.0°C 35.6°F / 2.0°C 62% 30.02 in / 1016.5 hPa 10.0 miles / 16.1 kilometers SE 12.7 mph / 20.4 km/h - N/A   Mostly Cloudy
12:55 PM 48.2°F / 9.0°C 35.6°F / 2.0°C 62% 30.01 in / 1016.1 hPa 10.0 miles / 16.1 kilometers SSE 16.1 mph / 25.9 km/h 21.9 mph / 35.2 km/h N/A   Overcast
1:15 PM 48.2°F / 9.0°C 35.6°F / 2.0°C 62% 30.01 in / 1016.1 hPa 10.0 miles / 16.1 kilometers SSE 12.7 mph / 20.4 km/h - N/A   Overcast
1:35 PM 48.2°F / 9.0°C 35.6°F / 2.0°C 62% 30.00 in / 1015.8 hPa 10.0 miles / 16.1 kilometers SSE 11.5 mph / 18.5 km/h - N/A   Overcast
1:55 PM 48.2°F / 9.0°C 35.6°F / 2.0°C 62% 29.99 in / 1015.5 hPa 10.0 miles / 16.1 kilometers SE 10.4 mph / 16.7 km/h - N/A   Overcast
2:15 PM 48.2°F / 9.0°C 35.6°F / 2.0°C 62% 29.98 in / 1015.1 hPa 10.0 miles / 16.1 kilometers SE 10.4 mph / 16.7 km/h - N/A   Overcast
2:35 PM 46.4°F / 8.0°C 35.6°F / 2.0°C 66% 29.97 in / 1014.8 hPa 10.0 miles / 16.1 kilometers ESE 9.2 mph / 14.8 km/h 16.1 mph / 25.9 km/h N/A   Overcast
2:55 PM 46.4°F / 8.0°C 35.6°F / 2.0°C 66% 29.97 in / 1014.8 hPa 10.0 miles / 16.1 kilometers ESE 11.5 mph / 18.5 km/h - N/A   Overcast
3:15 PM 48.2°F / 9.0°C 35.6°F / 2.0°C 62% 29.97 in / 1014.8 hPa 10.0 miles / 16.1 kilometers ESE 11.5 mph / 18.5 km/h 18.4 mph / 29.6 km/h N/A   Overcast
3:35 PM 46.4°F / 8.0°C 37.4°F / 3.0°C 71% 29.97 in / 1014.8 hPa 10.0 miles / 16.1 kilometers SE 15.0 mph / 24.1 km/h 20.7 mph / 33.3 km/h N/A   Overcast
3:55 PM 44.6°F / 7.0°C 39.2°F / 4.0°C 81% 29.97 in / 1014.8 hPa 10.0 miles / 16.1 kilometers SE 4.6 mph / 7.4 km/h - N/A   Overcast
4:15 PM 44.6°F / 7.0°C 39.2°F / 4.0°C 81% 29.97 in / 1014.8 hPa 10.0 miles / 16.1 kilometers ESE 6.9 mph / 11.1 km/h - N/A   Overcast
4:35 PM 44.6°F / 7.0°C 39.2°F / 4.0°C 81% 29.96 in / 1014.4 hPa 10.0 miles / 16.1 kilometers ESE 10.4 mph / 16.7 km/h - N/A   Overcast
4:55 PM 44.6°F / 7.0°C 39.2°F / 4.0°C 81% 29.95 in / 1014.1 hPa 10.0 miles / 16.1 kilometers SE 10.4 mph / 16.7 km/h - N/A   Overcast
5:15 PM 44.6°F / 7.0°C 39.2°F / 4.0°C 81% 29.95 in / 1014.1 hPa 10.0 miles / 16.1 kilometers ESE 11.5 mph / 18.5 km/h 18.4 mph / 29.6 km/h N/A   Overcast
5:35 PM 44.6°F / 7.0°C 39.2°F / 4.0°C 81% 29.94 in / 1013.8 hPa 10.0 miles / 16.1 kilometers SE 12.7 mph / 20.4 km/h 19.6 mph / 31.5 km/h N/A   Overcast
5:55 PM 44.6°F / 7.0°C 37.4°F / 3.0°C 76% 29.94 in / 1013.8 hPa 10.0 miles / 16.1 kilometers SE 10.4 mph / 16.7 km/h - N/A   Overcast
6:15 PM 44.6°F / 7.0°C 39.2°F / 4.0°C 81% 29.94 in / 1013.8 hPa 10.0 miles / 16.1 kilometers SE 8.1 mph / 13.0 km/h - N/A   Overcast
6:35 PM 42.8°F / 6.0°C 39.2°F / 4.0°C 87% 29.92 in / 1013.1 hPa 10.0 miles / 16.1 kilometers ESE 9.2 mph / 14.8 km/h - N/A   Overcast
6:55 PM 44.6°F / 7.0°C 37.4°F / 3.0°C 76% 29.91 in / 1012.8 hPa 10.0 miles / 16.1 kilometers ESE 12.7 mph / 20.4 km/h 17.3 mph / 27.8 km/h N/A   Overcast
7:15 PM 44.6°F / 7.0°C 37.4°F / 3.0°C 76% 29.90 in / 1012.4 hPa 10.0 miles / 16.1 kilometers ESE 12.7 mph / 20.4 km/h - N/A   Overcast
7:35 PM 44.6°F / 7.0°C 37.4°F / 3.0°C 76% 29.90 in / 1012.4 hPa 10.0 miles / 16.1 kilometers SE 10.4 mph / 16.7 km/h - N/A   Overcast
7:55 PM 44.6°F / 7.0°C 37.4°F / 3.0°C 76% 29.89 in / 1012.1 hPa 10.0 miles / 16.1 kilometers SE 10.4 mph / 16.7 km/h - N/A   Overcast
8:15 PM 44.6°F / 7.0°C 37.4°F / 3.0°C 76% 29.88 in / 1011.7 hPa 10.0 miles / 16.1 kilometers ESE 5.8 mph / 9.3 km/h - N/A   Overcast
8:35 PM 44.6°F / 7.0°C 37.4°F / 3.0°C 76% 29.86 in / 1011.1 hPa 10.0 miles / 16.1 kilometers ENE 4.6 mph / 7.4 km/h - N/A   Overcast
8:55 PM 46.4°F / 8.0°C 35.6°F / 2.0°C 66% 29.85 in / 1010.7 hPa 10.0 miles / 16.1 kilometers NE 4.6 mph / 7.4 km/h - N/A   Overcast
9:15 PM 46.4°F / 8.0°C 35.6°F / 2.0°C 66% 29.84 in / 1010.4 hPa 10.0 miles / 16.1 kilometers Calm Calm - N/A   Overcast
9:35 PM 44.6°F / 7.0°C 35.6°F / 2.0°C 71% 29.84 in / 1010.4 hPa 10.0 miles / 16.1 kilometers ESE 4.6 mph / 7.4 km/h - N/A   Overcast
9:55 PM 42.8°F / 6.0°C 37.4°F / 3.0°C 81% 29.83 in / 1010.0 hPa 10.0 miles / 16.1 kilometers WNW 4.6 mph / 7.4 km/h - N/A   Overcast
10:15 PM 44.6°F / 7.0°C 37.4°F / 3.0°C 76% 29.82 in / 1009.7 hPa 10.0 miles / 16.1 kilometers Calm Calm - N/A   Overcast
10:35 PM 42.8°F / 6.0°C 37.4°F / 3.0°C 81% 29.81 in / 1009.4 hPa 10.0 miles / 16.1 kilometers Calm Calm - N/A   Overcast
10:55 PM 42.8°F / 6.0°C 37.4°F / 3.0°C 81% 29.81 in / 1009.4 hPa 10.0 miles / 16.1 kilometers Calm Calm - N/A   Overcast
11:15 PM 44.6°F / 7.0°C 35.6°F / 2.0°C 71% 29.81 in / 1009.4 hPa 10.0 miles / 16.1 kilometers SW 4.6 mph / 7.4 km/h - N/A   Overcast
11:35 PM 44.6°F / 7.0°C 35.6°F / 2.0°C 71% 29.81 in / 1009.4 hPa 10.0 miles / 16.1 kilometers SE 4.6 mph / 7.4 km/h - N/A   Overcast
11:55 PM 44.6°F / 7.0°C 35.6°F / 2.0°C 71% 29.82 in / 1009.7 hPa 10.0 miles / 16.1 kilometers SSE 8.1 mph / 13.0 km/h 18.4 mph / 29.6 km/h N/A   Overcast
Moon Phase
Feb. 06 Feb. 10 Feb. 17 Feb. 25 Mar. 04
Sunrise:07:29 AM (PST) Moon Rise:04:27 AM (PST)2/6
Sunset:05:17 PM (PST) Moon Set:01:32 PM (PST)2/6

Copyright © 2014 The Weather Underground, Inc.